Location: Arcizac
(43.0933°N, 0.0112°E)
Time: 18:41:32
(UTC+00:00)

Meteor 2-4 Rocket - Pass Details

Date: 14 December 2019
Orbit: 798 x 909 km, 81.2° (Epoch: 20 January)

Event Time Altitude Azimuth Distance (km) Brightness Sun altitude
Rises 18:35:15 0° 188° (S) 3,513 7.2 -22.8°
Reaches altitude 10° 18:37:43 10° 188° (S) 2,569 6.4 -23.3°
Maximum altitude 18:43:36 89° 280° (W) 893 3.7 -24.3°
Enters shadow 18:47:14 24° 9° (N) 1,734 5.1 -25.0°
